Regional Weather Roundup
Issued by NWS

Home | Current Version | Previous Version | Text Only | Print | Product List | Glossary On
Versions: 1 2 3 4 5 6 7 8 9 10 11 12 13 14 15 16 17 18 19 20 21 22 23 24 25 26 27 28 29 30 31 32 33 34 35 36 37 38 39 40 41 42 43 44 45 46 47 48 49 50
147
ASUS44 KOUN 101110
RWROK

WEATHER ROUNDUP FOR OKLAHOMA
NATIONAL WEATHER SERVICE NORMAN OK
500 AM CST WED FEB 10 2016

NOTE: "FAIR" INDICATES FEW OR NO CLOUDS BELOW 12,000 FEET WITH NO
      SIGNIFICANT WEATHER AND/OR OBSTRUCTIONS TO VISIBILITY.

OKZ001>007-009>012-014-015-017-101200-
NORTHWEST OKLAHOMA AND THE PANHANDLE

CITY           SKY/WX    TMP DP  RH WIND       PRES   REMARKS
GAGE           CLEAR     23  20  88 W6        30.19F WCI  16
GUYMON         CLEAR     38  22  52 W13       30.18F WCI  30
ENID/WOODRING  CLEAR     23  21  93 S7        30.21F WCI  15
$$

OKZ016-021>023-033>039-044-045-101200-
SOUTHWEST OKLAHOMA

CITY           SKY/WX    TMP DP  RH WIND       PRES   REMARKS
LAWTON/REGL    CLEAR     28  22  78 CALM      30.29S
LAWTON/FT SILL CLEAR     28  23  80 S2        30.27S HAZE
CLINTON        CLEAR     33  23  66 SW14      30.25S WCI  23
HOBART         CLEAR     31  24  75 SW7       30.27S WCI  24
ALTUS AFB      CLEAR     35  23  59 SW8       30.27F WCI  29
$$

OKZ018>020-024>031-101200-
CENTRAL OKLAHOMA

CITY           SKY/WX    TMP DP  RH WIND       PRES   REMARKS
OKLAHOMA CITY  CLEAR     25  21  85 CALM      30.26S
OKC/WILEY POST CLEAR     27  20  75 S5        30.26S WCI  22
STILLWATER     CLEAR     26  17  68 S6        30.25F WCI  19
GUTHRIE        CLEAR     26  17  68 S8        30.26F WCI  18
$$

OKZ008-013-054>072-101200-
NORTHEAST OKLAHOMA

CITY           SKY/WX    TMP DP  RH WIND       PRES   REMARKS
TULSA          PTCLDY    28  12  51 SW3       30.30R
TULSA/JONES    PTCLDY    25  15  66 CALM      30.32R
PONCA CITY     CLEAR     26  14  60 S7        30.25F WCI  18
BARTLESVILLE   CLOUDY    23  16  74 CALM      30.30S
MUSKOGEE       CLEAR     21  13  71 W3        30.33R
$$

OKZ032-040>043-046>053-073>077-101200-
SOUTH CENTRAL/SOUTHEAST OKLAHOMA

CITY           SKY/WX    TMP DP  RH WIND       PRES   REMARKS
ARDMORE/DWNTWN CLEAR     30  23  74 CALM      30.31S
MCALESTER      PTCLDY    24  16  71 CALM      30.32R
$$





USA.gov is the U.S. government's official web portal to all federal, state and local government web resources and services.